Powrót do katalogu

THORAD AGENA D DEB

AktywnyPO
NORAD 5507·DEBRIS·🇺🇸 United States

Wystrzelony Apr 8, 1970 z Vandenberg Space Force Base

Loading…

Następne Przeloty (najbliższe 24 godziny)

TLE

ŚwieżeSource: Space-Track

Epoka: Sep 14, 2026, 15:03 UTC

1 05507U 70025LL  26257.62757435  .00002593  00000-0  88581-3 0  9994
2 05507  99.2619 309.7880 0024932 168.0970 192.0808 14.37133310864632

Śledź THORAD AGENA D DEB w czasie rzeczywistym z AllMySat

Download on the App Store